Location: Caltech
(34.1382°N, 118.1253°W)
Time: 18:26:53
(UTC-08:00)

Aureole 3 Rocket - Visible Passes

Search period start: 02 December 2016 00:00
Search period end: 12 December 2016 00:00
Orbit: 399 x 1745 km, 82.5° (Epoch: 02 December)

Date Brightness Start Highest point End Pass type
(mag) Time Alt. Az. Time Alt. Az. Time Alt. Az.
02 Dec 7.3 18:20:43 10° WSW 18:27:26 20° WNW 18:34:15 10° NNW visible
03 Dec 6.6 17:24:45 10° SW 17:33:47 38° WNW 17:43:01 10° N visible
04 Dec 7.4 18:24:30 10° W 18:29:44 15° WNW 18:34:57 10° NNW visible
05 Dec 6.9 17:27:24 10° SW 17:35:57 31° WNW 17:44:28 10° NNW visible
06 Dec 7.6 18:29:47 10° WNW 18:32:04 11° WNW 18:34:20 10° NW visible
07 Dec 7.1 17:30:23 10° WSW 17:38:08 24° WNW 17:45:42 10° NNW visible
09 Dec 7.2 17:33:48 10° WSW 17:40:20 19° WNW 17:46:38 10° NNW visible
11 Dec 7.3 17:37:59 10° W 17:42:33 14° WNW 17:46:58 10° NW visible
